Location: Riverside
(39.1734°N, 77.8561°W)
Time: 15:11:49
(UTC+00:00)

BEESAT 3 - Pass Details

Date: 25 May 2019
Orbit: 484 x 526 km, 64.9° (Epoch: 16 June)

Event Time Altitude Azimuth Distance (km) Brightness Sun altitude
Rises 05:39:26 0° 334° (NNW) 2,662 ? -29.5°
Reaches altitude 10° 05:41:41 10° 340° (NNW) 1,772 ? -29.4°
Enters shadow 05:43:53 29° 358° (N) 993 ? -29.3°
